TimeCST,TemperatureF,Dew PointF,Humidity,Sea Level PressureIn,VisibilityMPH,Wind Direction,Wind SpeedMPH,Gust SpeedMPH,PrecipitationIn,Events,Conditions,WindDirDegrees,DateUTC
12:53 AM,39.9,30.9,70,30.25,10.0,SW,6.9,-,N/A,,Clear,220,2012-01-30 06:53:00
1:53 AM,41.0,30.9,67,30.24,10.0,SW,9.2,-,N/A,,Clear,220,2012-01-30 07:53:00
2:53 AM,39.0,30.9,73,30.22,10.0,SW,8.1,-,N/A,,Clear,220,2012-01-30 08:53:00
3:53 AM,37.9,30.9,76,30.22,10.0,SW,8.1,-,N/A,,Clear,220,2012-01-30 09:53:00
4:53 AM,39.0,30.0,70,30.23,10.0,SW,8.1,-,N/A,,Clear,230,2012-01-30 10:53:00
5:53 AM,36.0,30.0,79,30.24,10.0,SSW,5.8,-,N/A,,Clear,200,2012-01-30 11:53:00
6:53 AM,36.0,30.0,79,30.25,10.0,South,5.8,-,N/A,,Clear,190,2012-01-30 12:53:00
7:53 AM,37.0,30.9,79,30.26,10.0,Calm,Calm,-,N/A,,Clear,0,2012-01-30 13:53:00
8:53 AM,41.0,32.0,70,30.25,10.0,SSW,9.2,-,N/A,,Clear,210,2012-01-30 14:53:00
9:53 AM,46.0,34.0,63,30.24,10.0,SSW,10.4,-,N/A,,Clear,210,2012-01-30 15:53:00
10:53 AM,51.1,36.0,56,30.24,10.0,SSW,12.7,-,N/A,,Clear,210,2012-01-30 16:53:00
11:53 AM,55.0,36.0,49,30.20,10.0,SW,13.8,-,N/A,,Clear,220,2012-01-30 17:53:00
12:53 PM,57.9,37.9,47,30.16,10.0,SW,15.0,-,N/A,,Clear,220,2012-01-30 18:53:00
1:53 PM,57.9,39.9,51,30.13,10.0,SSW,16.1,21.9,N/A,,Clear,210,2012-01-30 19:53:00
2:53 PM,57.9,39.9,51,30.12,10.0,SSW,19.6,24.2,N/A,,Clear,210,2012-01-30 20:53:00
3:53 PM,59.0,41.0,51,30.11,10.0,SSW,17.3,26.5,N/A,,Clear,200,2012-01-30 21:53:00
4:53 PM,57.9,39.9,51,30.11,10.0,SSW,12.7,-,N/A,,Clear,200,2012-01-30 22:53:00
5:53 PM,55.0,39.9,57,30.12,10.0,South,12.7,-,N/A,,Clear,190,2012-01-30 23:53:00
6:53 PM,54.0,37.0,53,30.13,10.0,South,13.8,-,N/A,,Clear,190,2012-01-31 00:53:00
7:53 PM,53.1,36.0,52,30.14,10.0,South,10.4,17.3,N/A,,Clear,180,2012-01-31 01:53:00
8:53 PM,51.1,36.0,56,30.14,10.0,South,8.1,-,N/A,,Clear,180,2012-01-31 02:53:00
9:53 PM,46.9,36.0,66,30.15,10.0,SSW,5.8,-,N/A,,Clear,200,2012-01-31 03:53:00
11:53 PM,46.9,35.1,63,30.13,10.0,SSW,5.8,-,N/A,,Clear,200,2012-01-31 05:53:00